Location: Kapla
(46.2483°N, 15.0094°E)
Time: 13:48:26
(UTC+00:00)

ISS - Visible Passes

Search period start: 14 May 2021 00:00
Search period end: 24 May 2021 00:00
Orbit: 417 x 422 km, 51.6° (Epoch: 14 May)

Date Brightness Start Highest point End Pass type
(mag) Time Alt. Az. Time Alt. Az. Time Alt. Az.
14 May -2.5 00:53:11 10° WNW 00:56:26 43° NNE 00:59:42 10° E visible
14 May -3.5 02:30:03 10° WNW 02:33:18 47° SW 02:36:34 10° SE visible
14 May -2.0 19:16:15 10° SSE 19:18:08 14° SE 19:20:01 10° E visible
14 May -3.9 20:51:08 10° WSW 20:54:29 83° SSE 20:57:52 10° ENE visible
14 May -2.1 22:28:25 10° WNW 22:31:33 34° N 22:34:41 10° ENE visible
15 May -2.2 00:05:43 10° WNW 00:08:54 36° N 00:12:03 10° E visible
15 May -3.9 01:42:32 10° WNW 01:45:55 73° SSW 01:49:17 10° SE visible
15 May -3.7 20:03:47 10° SW 20:07:04 54° SSE 20:10:23 10° ENE visible
15 May -2.4 21:40:47 10° W 21:43:59 40° NNW 21:47:13 10° ENE visible
15 May -1.9 23:18:13 10° WNW 23:21:19 32° N 23:24:25 10° ENE visible
16 May -3.7 00:55:05 10° WNW 00:58:28 77° NNE 01:01:51 10° ESE visible
16 May -2.4 02:32:27 10° W 02:34:58 19° SW 02:37:28 10° S visible
16 May -3.1 19:16:38 10° SSW 19:19:42 35° SE 19:22:49 10° ENE visible
16 May -2.9 20:53:09 10° W 20:56:27 50° NNW 20:59:46 10° ENE visible
16 May -1.9 22:30:40 10° WNW 22:33:44 31° N 22:36:47 10° ENE visible
17 May -3.1 00:07:39 10° WNW 00:10:58 55° NNE 00:14:18 10° E visible
17 May -3.0 01:45:02 12° W 01:47:39 30° SW 01:50:39 10° SSE visible
17 May -3.4 20:05:35 10° WSW 20:08:57 68° NNW 20:12:19 10° ENE visible
17 May -1.9 21:43:03 10° WNW 21:46:08 32° N 21:49:12 10° ENE visible
17 May -2.4 23:20:11 10° WNW 23:22:52 39° NNW 23:22:52 39° NNW visible
18 May -3.8 19:18:06 10° WSW 19:21:28 84° SSE 19:24:51 10° ENE visible
18 May -2.0 20:55:25 10° WNW 20:58:32 34° N 21:01:41 10° ENE visible
18 May -2.2 22:32:42 10° WNW 22:35:52 36° N 22:36:27 33° NE visible
19 May -2.3 20:07:45 10° W 20:10:57 40° NNW 20:14:10 10° ENE visible
19 May -2.0 21:45:11 10° WNW 21:48:16 32° N 21:50:16 18° ENE visible
19 May -1.5 23:22:02 10° WNW 23:23:11 20° WNW 23:23:11 20° WNW visible
20 May -2.8 19:20:07 10° W 19:23:24 50° NNW 19:26:42 10° ENE visible
20 May -1.9 20:57:37 10° WNW 21:00:40 31° N 21:03:44 10° ENE visible
20 May -2.6 22:34:35 10° WNW 22:37:05 41° NNW 22:37:05 41° NNW visible
21 May -1.9 20:10:00 10° WNW 20:13:03 31° N 20:16:08 10° ENE visible
21 May -2.6 21:47:07 10° WNW 21:50:22 43° NNE 21:51:02 37° NE visible
21 May -0.8 23:23:58 10° WNW 23:23:58 10° WNW 23:23:58 10° WNW visible
22 May -2.0 19:22:19 10° WNW 19:25:27 34° N 19:28:35 10° ENE visible
22 May -2.3 20:59:37 10° WNW 21:02:47 36° N 21:05:01 17° ENE visible
22 May -1.9 22:36:25 10° WNW 22:37:57 24° WNW 22:37:57 24° WNW visible
23 May -2.1 20:12:05 10° WNW 20:15:11 32° N 20:18:16 10° ENE visible
23 May -3.5 21:48:56 10° WNW 21:51:57 66° NW 21:51:57 66° NW visible
